Weather History for Westminster, MD

Change the Weather History Date:

Wednesday, February 13, 2013

  Actual Average (KTHV) Record (KTHV)
Temperature  
Mean Temperature 34 °F -  
Max Temperature 42 °F 0 °F 52 °F (2001)
Min Temperature 26 °F - 3 °F (2006)
Degree Days  
Heating Degree Days 31    
Moisture  
Dew Point 27 °F    
Average Humidity 76    
Maximum Humidity 93    
Minimum Humidity 53    
Precipitation  
Precipitation 0.06 in - - ()
Sea Level Pressure  
Sea Level Pressure 29.80 in    
Wind  
Wind Speed 2 mph (ENE)    
Max Wind Speed 8 mph    
Max Gust Speed -    
Visibility 7 miles    
Events Rain , Snow    
Averages and records for this station are not official NWS values.
T = Trace of Precipitation, MM = Missing Value Source: NWS Daily Summary

Daily Weather History Graph

Daily Weather History Graph

Search for Another Location

Airport:

Trip Planner

Search our weather history database for the weather conditions in past years. The results will help you decide how hot, cold, wet, or windy it might be!

Date:

Astronomy

Feb. 13, 2013 Rise Set
Actual Time 7:02 AM EST 5:42 PM EST
Civil Twilight 6:34 AM EST 6:10 PM EST
Nautical Twilight 6:03 AM EST 6:41 PM EST
Astronomical Twilight 5:31 AM EST 7:13 PM EST
Moon 8:31 AM EST (2/13) 9:42 PM EST (2/13)
Length of Visible Light 11h 35m
Length of Day
10h 40m
Waxing Crescent, 13% of the Moon is Illuminated
Feb 13
Waxing Crescent
Feb 17
First Quarter
Feb 25
Full
Mar 4
Last Quarter
Mar 11
New

Hourly Weather History & Observations

Time (EST) Temp. Windchill Dew Point Humidity Pressure Visibility Wind Dir Wind Speed Gust Speed Precip Events Conditions
12:05 AM 32.0 °F - 26.6 °F 80% 29.95 in 10.0 mi Calm Calm - N/A   Unknown
12:25 AM 32.0 °F - 24.8 °F 75% 29.95 in 10.0 mi Calm Calm - N/A   Unknown
12:45 AM 32.0 °F - 24.8 °F 75% 29.95 in 10.0 mi Calm Calm - N/A   Unknown
1:05 AM 30.2 °F - 24.8 °F 80% 29.95 in 10.0 mi Calm Calm - N/A   Unknown
1:25 AM 30.2 °F - 24.8 °F 80% 29.94 in 10.0 mi Calm Calm - N/A   Unknown
1:45 AM - - - N/A% 29.94 in 10.0 mi Calm Calm - N/A   Unknown
2:05 AM - - - N/A% 29.94 in 10.0 mi Calm Calm - N/A   Unknown
2:25 AM 28.4 °F - 24.8 °F 86% 29.92 in 7.0 mi Calm Calm - N/A   Unknown
2:45 AM 28.4 °F - 24.8 °F 86% 29.91 in 10.0 mi Calm Calm - N/A   Unknown
3:05 AM 28.4 °F - 24.8 °F 86% 29.91 in 10.0 mi Calm Calm - N/A   Unknown
3:25 AM 28.4 °F - 24.8 °F 86% 29.90 in 10.0 mi Calm Calm - N/A   Unknown
3:45 AM 28.4 °F 24.6 °F 24.8 °F 86% 29.90 in 10.0 mi ENE 3.5 mph - N/A   Unknown
4:05 AM 26.6 °F 22.6 °F 24.8 °F 93% 29.90 in 7.0 mi ENE 3.5 mph - N/A   Unknown
4:25 AM 26.6 °F 22.6 °F 24.8 °F 93% 29.88 in 7.0 mi NE 3.5 mph - N/A   Unknown
4:45 AM 26.6 °F 22.6 °F 23.0 °F 86% 29.88 in 7.0 mi NE 3.5 mph - N/A   Unknown
5:05 AM 26.6 °F - 24.8 °F 93% 29.89 in 7.0 mi Calm Calm - N/A   Unknown
5:25 AM 28.4 °F - 24.8 °F 86% 29.88 in 10.0 mi Calm Calm - N/A   Unknown
5:45 AM 28.4 °F - 24.8 °F 86% 29.88 in 10.0 mi Calm Calm - N/A   Unknown
6:05 AM 28.4 °F - 24.8 °F 86% 29.88 in 10.0 mi Calm Calm - N/A   Unknown
6:25 AM 28.4 °F - 24.8 °F 86% 29.88 in 10.0 mi Calm Calm - N/A   Unknown
6:45 AM 26.6 °F - 24.8 °F 93% 29.88 in 7.0 mi Calm Calm - N/A   Unknown
7:05 AM 26.6 °F - 24.8 °F 93% 29.87 in 7.0 mi Calm Calm - N/A   Unknown
7:25 AM 28.4 °F - 24.8 °F 86% 29.86 in 7.0 mi Calm Calm - N/A   Unknown
7:45 AM 28.4 °F - 24.8 °F 86% 29.86 in 10.0 mi Calm Calm - N/A   Unknown
8:25 AM 33.8 °F 30.8 °F 26.6 °F 75% 29.87 in 10.0 mi SE 3.5 mph - N/A   Unknown
8:45 AM 33.8 °F - - N/A% 29.87 in - Calm Calm - N/A   Unknown
9:05 AM 35.6 °F 32.8 °F 26.6 °F 70% 29.86 in 10.0 mi SSE 3.5 mph - N/A   Unknown
9:25 AM 35.6 °F 32.8 °F 26.6 °F 70% 29.86 in 10.0 mi SSE 3.5 mph - N/A   Unknown
9:45 AM 35.6 °F 32.8 °F 26.6 °F 70% 29.86 in 10.0 mi SSE 3.5 mph - N/A   Unknown
10:05 AM 37.4 °F 32.8 °F 26.6 °F 65% 29.85 in 10.0 mi SE 5.8 mph - N/A   Unknown
10:25 AM 37.4 °F 32.1 °F 24.8 °F 60% 29.84 in 10.0 mi SE 6.9 mph - N/A   Unknown
11:05 AM 39.2 °F 35.9 °F 26.6 °F 61% 29.84 in 10.0 mi SE 4.6 mph - N/A   Unknown
11:25 AM 37.4 °F 34.9 °F 26.6 °F 65% 29.82 in 10.0 mi East 3.5 mph - N/A   Unknown
11:45 AM 39.2 °F 35.9 °F 26.6 °F 61% 29.80 in 10.0 mi East 4.6 mph - N/A   Unknown
12:05 PM 39.2 °F 35.9 °F 26.6 °F 61% 29.79 in 10.0 mi East 4.6 mph - N/A   Unknown
12:25 PM 41.0 °F 37.1 °F 26.6 °F 57% 29.75 in 10.0 mi East 5.8 mph - N/A   Unknown
12:45 PM 42.8 °F 38.0 °F 26.6 °F 53% 29.75 in 10.0 mi ESE 8.1 mph - N/A   Unknown
1:05 PM 42.8 °F 41.1 °F 26.6 °F 53% 29.76 in 10.0 mi SE 3.5 mph - N/A   Unknown
1:25 PM 42.8 °F 41.1 °F 26.6 °F 53% 29.75 in 10.0 mi ESE 3.5 mph - N/A   Unknown
1:45 PM 42.8 °F 39.3 °F 26.6 °F 53% 29.74 in 10.0 mi SE 5.8 mph - N/A   Unknown
2:05 PM 42.8 °F - 26.6 °F 53% 29.73 in 10.0 mi Calm Calm - N/A   Unknown
2:25 PM 41.0 °F 38.0 °F 26.6 °F 57% 29.71 in 10.0 mi NE 4.6 mph - N/A   Unknown
2:45 PM 42.8 °F 41.1 °F 26.6 °F 53% 29.71 in 10.0 mi NE 3.5 mph - N/A   Unknown
3:05 PM 42.8 °F 40.1 °F 26.6 °F 53% 29.69 in 10.0 mi East 4.6 mph - N/A   Unknown
3:25 PM 41.0 °F 38.0 °F 28.4 °F 61% 29.67 in 10.0 mi ENE 4.6 mph - N/A   Unknown
3:45 PM 41.0 °F 39.0 °F 28.4 °F 61% 29.67 in 10.0 mi East 3.5 mph - N/A   Unknown
4:05 PM 41.0 °F 39.0 °F 28.4 °F 61% 29.68 in 10.0 mi SE 3.5 mph - N/A   Unknown
4:25 PM 41.0 °F - 28.4 °F 61% 29.67 in 10.0 mi Calm Calm - N/A   Unknown
4:45 PM 41.0 °F 39.0 °F 28.4 °F 61% 29.67 in 10.0 mi ENE 3.5 mph - N/A Rain Light Rain
5:05 PM 39.2 °F 33.6 °F 30.2 °F 70% 29.67 in 10.0 mi NE 8.1 mph - N/A Rain Light Rain
5:25 PM 37.4 °F 31.4 °F 30.2 °F 75% 29.67 in 7.0 mi NE 8.1 mph - N/A Rain Light Rain
5:45 PM 37.4 °F 32.1 °F 30.2 °F 75% 29.67 in 5.0 mi ENE 6.9 mph - N/A Rain Light Rain
6:05 PM 35.6 °F 29.9 °F 30.2 °F 81% 29.67 in 4.0 mi NE 6.9 mph - N/A   Unknown
6:25 PM 33.8 °F 30.8 °F 30.2 °F 87% 29.68 in 1.8 mi NNE 3.5 mph - N/A Snow Light Snow
6:45 PM 33.8 °F 29.6 °F 30.2 °F 87% 29.68 in 1.2 mi NE 4.6 mph - 0.01 in Snow Light Snow
7:05 PM 33.8 °F 30.8 °F 30.2 °F 87% 29.68 in 1.5 mi NNE 3.5 mph - N/A Snow Light Snow
7:25 PM 33.8 °F - 30.2 °F 87% 29.69 in 1.2 mi Calm Calm - 0.01 in Snow Light Snow
7:45 PM 33.8 °F - 30.2 °F 87% 29.70 in 0.8 mi Calm Calm - 0.01 in Snow Light Snow
8:05 PM 33.8 °F - 32.0 °F 93% 29.70 in 0.8 mi Calm Calm - 0.01 in Snow Snow
8:25 PM 33.8 °F 30.8 °F 30.2 °F 87% 29.70 in 1.0 mi North 3.5 mph - 0.02 in Snow Light Snow
8:45 PM 33.8 °F 30.8 °F 30.2 °F 87% 29.70 in 1.2 mi North 3.5 mph - 0.03 in Snow Light Snow
9:05 PM 33.8 °F - 30.2 °F 87% 29.70 in 1.2 mi Calm Calm - N/A Snow Light Snow
9:25 PM 33.8 °F 30.8 °F 32.0 °F 93% 29.71 in 1.0 mi NW 3.5 mph - N/A Snow Light Snow
9:45 PM 33.8 °F - 30.2 °F 87% 29.72 in 1.0 mi Calm Calm - 0.01 in Snow Light Snow
10:05 PM 33.8 °F 30.8 °F 32.0 °F 93% 29.73 in 1.2 mi NW 3.5 mph - N/A Snow Light Snow
10:25 PM 33.8 °F 30.8 °F 30.2 °F 87% 29.73 in 1.2 mi NNW 3.5 mph - N/A Snow Light Snow
11:05 PM 33.8 °F - 30.2 °F 87% 29.74 in 1.5 mi Calm Calm - N/A Snow Light Snow
11:25 PM 33.8 °F - 30.2 °F 87% 29.74 in 1.5 mi Calm Calm - N/A Snow Light Snow
11:45 PM 33.8 °F - 30.2 °F 87% 29.75 in 1.5 mi Calm Calm - N/A   Mist